www.pogodaiklimat.ru

Погода и климат >> Архив погоды >> Египет >> Sallum Plateau


ПОГОДА в Sallum Plateau

  • Прогноз погоды в Sallum Plateau
  • Монитор погоды в Sallum Plateau
  • Климат города

АРХИВ ПОГОДЫ в Sallum Plateau

Время (UTC), дата Ветер
(напр.,м/с)
 
Видим.   Явления Облачность Т
(С)
Тd
(С)
f
(%)
Тe
(С)
Тes
(С)
Комфортность P
(гПа)
Po
(гПа)
Тmin
(С)
Tmax
(С)
R
(мм)
R24
(мм)
S
(см)
06 16.01 ЮЗ 5 10 км ясно +7.6 +7.6 100 +4 +4 1026.8 1027.0 +7.3
09 16.01 0
{24}
{ливн. осадки} н/о +9.9 -17 -17 1025.8 1025.7
12 16.01 З 4 10 км ясно +13.6 +4.7 55 +12 +17 1024.4 1024.0
15 16.01 СЗ 5 10 км ясно +16.9 +4.1 43 +16 +16 1023.4 1023.0
18 16.01 СЗ 3 10 км ясно +11.7 +6.0 68 +10 +10 1023.2 1023.0 +18.1
21 16.01 0
{28}
{метель} н/о +9.3 1022.4 1022.2
00 17.01 З 5 10 км ясно +8.8 +3.3 68 +5 +5 1021.2 1021.0
03 17.01 З 7 10 км ясно +9.0 +5.6 79 +5 +5 1019.6 1020.0
06 17.01 З 6 10 км ясно +8.1 +6.7 91 +4 +4 1019.9 1020.0 +7.1
09 17.01 0
{29}
{метель, снег} н/о 1008.1 1008.0
12 17.01 0
{28}
{гроза} н/о 1010.7 1011.0
15 17.01 З 7 10 км ясно +17.5 +5.9 46 +17 +17 1017.0 1017.0
18 17.01 З 5 10 км ясно +13.9 +6.1 59 +12 +12 1016.8 1017.0 +18.3
21 17.01 З 7 10 км ясно +12.6 +6.0 64 +10 +10 1015.7 1016.0
00 18.01 З 8 10 км ясно +10.4 +7.6 83 +6 +6 1014.2 1014.0
03 18.01 З 10 10 км ясно +9.7 +9.6 99 +5 +5 1012.4 1012.0
06 18.01 З 8 10 км ясно +9.1 +7.3 88 +5 +5 1013.2 1013.0 +8.9
09 18.01 0
{28}
{метель, снег} н/о 1003.7 1004.0
12 18.01 0
{21}
{дождь} н/о 1004.7 1005.0
15 18.01 штиль 0 8000 м пыльный позёмок ясно +14.3 +3.7 49 +11 +11 1015.1 1015.0
18 18.01 0
{17}
{дождь} н/о 1018.1 1018.2
21 18.01 СЗ 9 10 км ясно +11.6 +2.6 54 +8 +8 1017.7 1018.0
00 19.01 СЗ 7 10 км ясно +11.2 +3.4 59 +8 +8 1017.8 1018.0
03 19.01 0
{17}
{снег} н/о 1009.5 1010.0
06 19.01 З 4 10 км ясно +8.3 +3.8 73 +5 +6 1007.5 1007.7 +8.2
09 19.01 0
{17}
н/о 1011.3 1011.0
12 19.01 СЗ 6 10 км ясно +16.0 +4.9 48 +15 +17 1020.1 1020.0
15 19.01 0
{18}
н/о +8.0 1022.5 1022.5
18 19.01 З 3 10 км ясно +11.0 +4.8 66 +10 +10 1022.0 1022.0 +16.2
21 19.01 З 3 10 км ясно +9.6 +4.8 72 +8 +8 1022.0 1022.0
00 20.01 0
{16}
{туман} н/о 1010.9 1011.0
03 20.01 ЮЗ 4 10 км ясно +6.4 +4.6 88 +3 +3 1006.3 1006.3
06 20.01 0 {гроза} н/о 1004.1 1004.0
09 20.01 0
{14}
{ливн. осадки} н/о +50.2 1000.3 1000.0
12 20.01 0 н/о 998.5 999.0
15 20.01 0
{13}
{гроза} н/о 997.9 998.0
18 20.01 0 {дождь} н/о 1000.9 1001.0
21 20.01 0 {метель} н/о 1006.5 1007.0
00 21.01 0 {метель} н/о 1011.3 1011.0
03 21.01 0 {морось} н/о 1014.5 1015.0
06 21.01 0 {снег} н/о 1016.1 1016.0
09 21.01 0 {дождь} н/о 1016.7 1017.0
12 21.01 0
{13}
н/о 1013.5 1014.0
15 21.01 0 н/о 1010.3 1010.0
18 21.01 0
{16}
н/о +50.2 1008.9 1009.0
21 21.01 0
{22}
{дождь} н/о 1008.5 1009.0
00 22.01 0
{20}
{туман} н/о 1008.9 1009.0
03 22.01 0
{17}
{снег} н/о 1008.3 1008.0
06 22.01 0 н/о 1008.3 1008.0
09 22.01 0 {гроза} н/о 1009.3 1009.0
12 22.01 0 {ливн. осадки} н/о 1012.9 1013.0
15 22.01 0
{15}
н/о 1015.7 1016.0
18 22.01 0
{13}
{ливн. осадки} н/о 1019.5 1020.0
21 22.01 0 {ливн. осадки} н/о +50.2 1021.1 1021.0
00 23.01 0
{14}
{ливн. осадки} н/о 1021.3 1021.0

 

Местоположение метеостанции Sallum Plateau (Египет): широта 31.57 долгота 25.13 высота над уровнем моря 6 м.

В архиве по умолчанию представлена погода в Sallum Plateau за последнюю неделю. Архивные данные за месяц целиком и за предыдущие месяцы, начиная с января 2011 года, Вы можете получить, выбрав интересующий диапазон дат из раскрывающегося списка и нажав кнопку "Ввод!".

Внимание! Время в таблицах - всемирное. Для получения местного времени необходимо прибавить поправку, которая в Sallum Plateau равна 2 ч.

Смотрите также архив погоды в соседних городах и на ближайших метеорологических станциях:

Погода в Mersa Matruh (Египет) (200 км)
Погода в Siwa (Египет) (264 км)
Погода в Dabaa (Египет) (325 км)
Погода в Kasteli (Греция) (402 км)
Погода в Sitia (Греция) (414 км)
Погода в Heraklion (Греция) (418 км)
Погода в Jalo (Ливия) (443 км)
Погода в Souda (Греция) (445 км)
Погода в Alexandria (Египет) (459 км)
Погода в Bingazi (Ливия) (463 км)

Пояснения к столбцам:

Ветер - указаны скорость ветра в м/с - средняя за 10 мин, порывы в срок и между сроками (в фигурных скобках) и направление, откуда дует ветер: С - северный, СВ - северо-восточный, В - восточный, ЮВ - юго-восточный, Ю - южный, ЮЗ - юго-западный, З - западный, СЗ - северо-западный.
Видимость - горизонтальная дальность видимости в метрах или километрах. При видимости от 1 до 10 км при отсутствии осадков обычно наблюдается дымка, при ухудшении видимости до 1 км и менее - туман. В сухую погоду видимость может ухудшаться дымом, пылью или мглою.
Явления - указаны атмосферные явления, наблюдавшиеся в срок или в последний час перед сроком; фигурными скобками обозначены явления, наблюдавшиеся между сроками (за 1-3 часа до срока); квадратными скобками обозначены град или гололедные отложения с указанием их диаметра в мм.
Облачность - указаны через наклонную черту общая и нижняя облачность в баллах и высота нижней границы облаков в метрах; квадратными скобками обозначены формы облаков: Ci - перистые, Cs - перисто-слоистые, Cc - перисто-кучевые, Ac - высококучевые, As - высокослоистые, Sc - слоисто-кучевые, Ns - слоисто-дождевые, Cu - кучевые, Cb - кучево-дождевые. Подробнее классификацию облаков см. в Атласе облаков (PDF).
T - Температура воздуха - температура, измеренная на высоте 2 м над землей.
Td - Температура точки росы - температура, при понижении до которой содержащийся в воздухе водяной пар достигнет насыщения.
f - Относительная влажность воздуха - влажноcть воздуха, измеренная на высоте 2 м над землей.
Te - Эффективная температура - температура, которую ощущает одетый по сезону человек в тени. Характеристика душности погоды. При расчете учитывается влияние влажности воздуха и скорости ветра на теплоощущения человека.
Tes - Эффективная температура на солнце - температура, которую ощущает человек, с поправкой на солнечный нагрев. Характеристика знойности погоды. Зависит от высоты солнца над горизонтом, облачности и скорости ветра. Ночью, в пасмурную погоду, а также при ветре 12 м/с и более поправка равна нулю.
P - Атмосферное давление - приведенное к уровню моря атмосферное давление.
Po - Атмосферное давление - измеренное на уровне метеостанции атмосферное давление.
Tmin - Минимальная температура - минимум температуры воздуха на высоте 2 м над землей.
Tmax - Максимальная температура - максимум температуры воздуха на высоте 2 м над землей.
R - Количество осадков - Количество выпавших осадков за период времени, мм. При наведении курсора мыши на число - период времени, за который выпало указанное количество осадков.
R24 - Количество осадков - Количество выпавших осадков за 24 часа, мм.
S - Снежный покров - Высота снежного покрова, см. При наведении курсора мыши на число - состояние снежного покрова и степень покрытия местности в баллах.